Valdosta Regional, GA

10:11 AM EDT on May 23, 2017 (GMT -0400)
Valdosta Regional

Weather History for KVLD - October, 2013

Change the Weather History Date:

Wednesday, October 2, 2013

  Actual Average Record
Temperature  
Mean Temperature 76 °F 73 °F  
Max Temperature 88 °F 84 °F 91 °F (2004)
Min Temperature 63 °F 62 °F 45 °F (2001)
Degree Days  
Heating Degree Days 0 0  
Month to date heating degree days 0 0  
Since 1 July heating degree days 0 1  
Cooling Degree Days 11 8  
Month to date cooling degree days 24 16  
Year to date cooling degree days 2752 2241  
Growing Degree Days 26 (Base 50)    
Moisture  
Dew Point 60 °F    
Average Humidity 62    
Maximum Humidity 87    
Minimum Humidity 36    
Precipitation  
Precipitation 0.00 in 0.10 in 1.43 in (2015)
Month to date precipitation 0.00 0.21  
Year to date precipitation 36.00 41.88  
Sea Level Pressure  
Sea Level Pressure 30.11 in    
Wind  
Wind Speed 3 mph (ESE)    
Max Wind Speed 12 mph    
Max Gust Speed 15 mph    
Visibility 10 miles    
Events      
T = Trace of Precipitation, MM = Missing Value Source: NWS Daily Summary

Daily Weather History Graph

Daily Weather History Graph

Search for Another Location

Airport or City:

Trip Planner

Search our weather history database for the weather conditions in past years. The results will help you decide how hot, cold, wet, or windy it might be!

Date:

Astronomy

Oct. 02, 2013 Rise Set
Actual Time 7:27 AM EDT 7:16 PM EDT
Civil Twilight 7:03 AM EDT 7:40 PM EDT
Nautical Twilight 6:35 AM EDT 8:08 PM EDT
Astronomical Twilight 6:07 AM EDT 8:36 PM EDT
Moon 5:07 AM EDT (10/2) 5:46 PM EDT (10/2)
Length of Visible Light 12h 37m
Length of Day
11h 49m
Waning Crescent, 6% of the Moon is Illuminated
Oct 2
Waning Crescent
Oct 4
New
Oct 11
First Quarter
Oct 18
Full
Oct 26
Last Quarter

Hourly Weather History & Observations

Time (EDT) Temp. Heat Index Dew Point Humidity Pressure Visibility Wind Dir Wind Speed Gust Speed Precip Events Conditions
12:53 AM 69.1 °F - 62.1 °F 78% 30.13 in 10.0 mi Calm Calm - N/A   Clear
1:53 AM 68.0 °F - 63.0 °F 84% 30.13 in 10.0 mi Calm Calm - N/A   Clear
2:53 AM 66.0 °F - 61.0 °F 84% 30.12 in 9.0 mi Calm Calm - N/A   Clear
3:53 AM 66.9 °F - 62.1 °F 84% 30.11 in 10.0 mi Calm Calm - N/A   Overcast
4:53 AM 66.0 °F - 62.1 °F 87% 30.11 in 10.0 mi Calm Calm - N/A   Scattered Clouds
5:53 AM 64.0 °F - 60.1 °F 87% 30.10 in 7.0 mi Calm Calm - N/A   Clear
6:53 AM 64.0 °F - 59.0 °F 84% 30.12 in 6.0 mi Calm Calm - N/A   Haze
7:53 AM 64.0 °F - 60.1 °F 87% 30.13 in 5.0 mi Calm Calm - N/A   Clear
8:53 AM 70.0 °F - 63.0 °F 78% 30.14 in 10.0 mi Calm Calm - N/A   Clear
9:53 AM 75.9 °F - 62.1 °F 62% 30.16 in 10.0 mi East 4.6 mph - N/A   Clear
10:53 AM 80.1 °F 80.9 °F 60.1 °F 50% 30.15 in 10.0 mi East 6.9 mph - N/A   Clear
11:53 AM 82.0 °F 82.1 °F 59.0 °F 45% 30.14 in 10.0 mi East 6.9 mph - N/A   Clear
12:53 PM 84.0 °F 83.5 °F 57.9 °F 41% 30.13 in 10.0 mi Variable 5.8 mph - N/A   Clear
1:53 PM 84.9 °F 83.9 °F 57.0 °F 38% 30.11 in 10.0 mi ESE 6.9 mph - N/A   Clear
2:53 PM 87.1 °F 86.1 °F 57.9 °F 37% 30.09 in 10.0 mi Variable 4.6 mph - N/A   Clear
3:53 PM 88.0 °F 86.7 °F 57.0 °F 35% 30.08 in 10.0 mi SE 6.9 mph - N/A   Partly Cloudy
4:53 PM 84.9 °F 84.4 °F 59.0 °F 41% 30.07 in 10.0 mi ENE 5.8 mph - N/A   Partly Cloudy
5:53 PM 82.9 °F 83.2 °F 60.1 °F 46% 30.07 in 10.0 mi East 4.6 mph - N/A   Clear
6:53 PM 80.1 °F 80.9 °F 60.1 °F 50% 30.08 in 10.0 mi Calm Calm - N/A   Clear
7:53 PM 77.0 °F - 61.0 °F 58% 30.09 in 10.0 mi Calm Calm - N/A   Clear
8:53 PM 75.0 °F - 62.1 °F 64% 30.10 in 10.0 mi East 4.6 mph - N/A   Clear
9:53 PM 73.0 °F - 61.0 °F 66% 30.11 in 10.0 mi ESE 5.8 mph - N/A   Clear
10:53 PM 72.0 °F - 61.0 °F 68% 30.13 in 10.0 mi ESE 3.5 mph - N/A   Clear
11:53 PM 70.0 °F - 60.1 °F 71% 30.13 in 10.0 mi ESE 3.5 mph - N/A   Clear